This demonstration page uses our WeatherBlox Daily Observations layout. Learn more.

Hourly Observations for January 28, 2017

Temp ( °F °C ) Dew Point ( °F °C ) Humidity (%) Winds ( mph kmh ) Pressure ( in mb ) Visibility ( mi km ) Precip ( " mm )
12:54 am 00:54 Clear 31 -0.6 25 -3.9 79 79 NW 13 20 30.12 1020 10 16.0934 0 0
1:54 am 01:54 Clear 31 -0.6 25 -3.9 79 79 NW 12 19 30.11 1020 10 16.0934 0 0
2:54 am 02:54 Clear 31 -0.6 25 -3.9 79 79 NW 16 26 30.11 1020 10 16.0934 0 0
3:54 am 03:54 Clear 31 -0.6 24 -4.4 76 76 WNW 13 20 30.11 1020 10 16.0934 0 0
4:54 am 04:54 Clear 31 -0.6 24 -4.4 76 76 WNW 16 26 30.1 1019 10 16.0934 0 0
5:54 am 05:54 Clear 31 -0.6 23 -5 72 72 WNW 12 19 30.1 1019 10 16.0934 0 0
6:54 am 06:54 Clear 30 -1.1 23 -5 75 75 WNW 13 20 30.11 1020 10 16.0934 0 0
7:54 am 07:54 Sunny 30 -1.1 23 -5 75 75 WNW 14 22 30.1 1019 10 16.0934 0 0
8:54 am 08:54 Sunny 33 0.6 23 -5 66 66 WNW 14 22 30.11 1020 10 16.0934 0 0
9:54 am 09:54 Sunny 36 2.2 23 -5 59 59 WNW 18 30 30.11 1020 10 16.0934 0 0
10:54 am 10:54 Mostly Cloudy 39 3.9 25 -3.9 57 57 NW 21 33 30.11 1020 10 16.0934 0 0
11:54 am 11:54 Sunny 41 5 26 -3.3 55 55 NW 20 31 30.08 1019 10 16.0934 0 0
12:54 pm 12:54 Cloudy 41 5 26 -3.3 55 55 WNW 20 31 30.06 1018 10 16.0934 0 0
1:54 pm 13:54 Mostly Cloudy 42 5.6 26 -3.3 53 53 NW 20 31 30.04 1017 10 16.0934 0 0
2:54 pm 14:54 Cloudy 42 5.6 28 -2.2 58 58 NW 17 28 30.03 1017 10 16.0934 0 0
3:54 pm 15:54 Cloudy 41 5 27 -2.8 57 57 WNW 14 22 30.03 1017 10 16.0934 0 0
4:54 pm 16:54 Cloudy 41 5 28 -2.2 60 60 WNW 14 22 30.01 1016 10 16.0934 0 0
5:54 pm 17:54 Cloudy 41 5 28 -2.2 60 60 WNW 13 20 30.02 1017 10 16.0934 0 0
6:54 pm 18:54 Cloudy 40 4.4 28 -2.2 63 63 NW 18 30 30.03 1017 10 16.0934 0 0
7:54 pm 19:54 Cloudy 39 3.9 29 -1.7 67 67 NW 15 24 30.04 1017 10 16.0934 0 0
8:54 pm 20:54 Cloudy 38 3.3 29 -1.7 70 70 NNW 14 22 30.05 1018 10 16.0934 0 0
9:54 pm 21:54 Cloudy 37 2.8 29 -1.7 73 73 NNW 14 22 30.05 1018 10 16.0934 0 0
10:26 pm 22:26 Cloudy 37 3 28 -2 70 70 NNW 16 26 30.09 1019 10 16.0934 0 0
10:54 pm 22:54 Partly Cloudy 36 2.2 28 -2.2 73 73 NW 14 22 30.06 1018 10 16.0934 0 0
11:54 pm 23:54 Clear 36 2.2 28 -2.2 73 73 NW 14 22 30.08 1019 10 16.0934 0 0

Powered by AerisWeather